Reflectivity
-20 -20 -20 -20 -20 -20 -20 -20 -20 -16 -20 -20 12 -14 -20 -17 -6 29 -7 7 12 14 12 -20 -20 5 -20 -20 -20 -20 -20 -20 -20 -20 -20 -20 -20 -20 -20 -20 -20 -20 -20 -20 -20 -20 -20 -20 -20
-20 -20 -20 -20 -20 -20 -20 -20 -20 -20 -4 -20 -20 -20 -20 -12 7 27 26 21 18 -14 -20 -20 -19 -20 -20 -20 -20 -20 -20 -20 -20 -20 -20 -20 -20 -20 -20 -20 -20 -20 -20 -20 -20 -20 -20 -20 -20
-20 -20 -20 -20 -20 -20 -20 -20 -20 -20 -20 23 24 1 3 7 8 35 30 11 -1 -18 -20 -5 -17 -16 -12 -17 -16 -20 -20 -20 -20 -20 -20 -20 -20 -20 -20 -20 -20 -20 -20 -20 -20 -20 -20 -20 -20
-20 -20 -20 -20 -20 -20 -20 -20 -20 -20 2 9 23 24 21 24 30 29 10 2 -19 -14 22 7 -9 -13 -16 -12 -20 -20 -20 -20 -20 -20 -20 -20 -20 -20 -20 -20 -20 -20 -20 -20 -20 -20 -20 -20 -20
-20 -20 -20 -20 -20 -20 -20 -20 -20 2 12 -0 17 -1 -5 10 21 11 9 1 -16 10 -1 -13 -7 -13 -14 -20 -20 -20 -20 -20 -20 -20 -20 -20 -20 -20 -20 -20 -20 -20 -20 -20 -20 -20 -20 -20 -20
-20 -20 -20 -20 -20 -20 -20 -20 -20 -20 3 12 -18 -8 -0 7 14 7 -3 9 2 0 -6 -17 3 -4 -20 -20 -20 -20 -20 -20 -20 -20 -20 -20 -20 -20 -20 -20 -20 -20 -20 -20 -20 -20 -20 -20 -20
-20 -20 -20 -20 -20 -20 -20 -20 19 23 -16 0 -10 -9 2 12 -1 -10 19 19 26 -3 1 -18 -1 -20 -20 2 5 -20 -20 -20 -20 -20 -20 -20 -20 -20 -20 -20 -20 -20 -20 -20 -20 -20 -20 -20 -20
-20 -20 -20 -20 -20 -20 -20 -18 -1 31 11 8 -19 -20 0 -12 26 -9 3 -0 2 -4 -10 7 -19 -3 11 -18 13 -20 -20 -20 -20 -20 -20 -20 -20 -20 -20 -20 -20 -20 -20 -20 -20 -20 -20 -20 -20
-20 -20 -20 -20 -20 -3 -13 -12 -11 12 4 -12 -12 -20 -19 -1 2 4 1 -7 7 5 7 2 -10 -12 -13 10 2 -20 -20 -20 -20 -20 -20 -20 -20 -20 -20 -20 -20 -20 -20 -20 -20 -20 -20 -20 -20
-20 -20 -20 -6 -13 16 1 -10 12 11 -20 -20 -20 -20 -20 -20 -11 -19 -15 -9 -15 -15 -13 -11 -4 -2 -20 12 -17 -20 -20 -20 -20 -20 -20 -20 -20 -20 -20 -20 -20 -20 -20 -20 -20 -20 -20 -20 -20
-20 -20 -20 -9 -19 -2 -19 -5 -19 -20 -20 -20 -20 -20 -20 -4 -9 -20 -19 -20 -20 -20 -20 -20 -20 -18 -20 -20 -20 -20 -20 -20 -20 -20 -20 -20 -20 -20 -20 -20 -20 -20 -20 -20 -20 -20 -20 -20 -20
-20 -20 -20 -20 8 -20 -20 -20 -20 -20 -20 -20 -20 -20 -20 -20 -20 -20 -20 -20 -20 -4 -20 1 -20 -20 -20 -20 -20 -20 -20 -20 -20 -20 -20 -20 -20 -20 -20 -20 -20 -20 -20 -20 -20 -20 -20 -20 -20
-20 -20 -20 -20 -20 -20 -20 -20 -20 -20 -20 -20 -20 -20 -20 -20 -20 -20 -20 -20 -20 -20 -20 -20 -20 -20 -20 -20 -20 -20 -20 -20 -20 -20 -20 2 2 -19 -20 -20 -20 -20 -20 -20 -20 -20 -20 -20 -20
-20 -20 -17 -20 -20 -20 -20 -20 -20 -20 -20 -20 -20 -20 -20 -20 -20 -20 -20 -20 -20 -20 -20 -20 -20 -20 -20 -20 -20 -20 -20 13 -20 8 32 36 30 26 -20 -20 -20 -20 -20 -20 -20 -20 -20 -20 -20
-20 -20 -20 -20 -20 -20 -20 -20 -20 -20 -20 -20 -20 -20 -20 -20 -20 -20 -20 -20 -20 -20 -20 -20 -20 -20 -20 -20 -20 -20 -11 -0 -2 17 25 29 23 19 -20 -20 -20 -20 -20 -20 -20 -20 -20 -20 -20
-20 -20 -20 -20 -20 -20 -20 -20 -20 -20 -20 -20 -20 -20 -20 -20 -20 -20 -20 -20 -20 -20 -20 -20 -20 -20 -20 -12 16 28 22 14 22 25 12 -0 -14 -20 -18 -20 -20 -20 -20 -20 -20 -20 -20 -20 -20
-20 -20 -20 -20 -20 -20 -20 -20 -20 -20 -20 -20 -20 -20 -20 -20 -20 -20 -20 -20 -20 -20 -20 -20 4 -13 -0 29 30 13 -14 3 -20 -8 2 2 7 1 -14 -20 -20 -20 -20 -20 -20 -20 -20 -20 -20
-20 -20 -20 -20 -20 -20 -20 -20 -20 -20 -20 -20 -20 -20 -20 -20 -20 -20 -14 -20 -20 -20 -20 -20 21 -10 -6 21 -1 -20 -20 -20 -20 -20 -20 -19 -20 -20 -20 -20 -20 -20 -20 -20 -20 -20 -20 -20 -20
-20 -20 -20 -20 -20 -20 -20 -20 -20 -20 -20 -20 -20 -20 -20 -20 -14 -20 -20 -20 -20 -20 -20 22 -20 -20 -20 -20 -20 -20 -20 -20 -20 -20 -20 -20 -20 -20 -20 -20 -20 -20 -20 -20 -20 -20 -20 -20 -20
-20 -20 -20 -20 -20 -20 -20 -20 -20 -20 -20 -20 -20 -20 -20 -20 -20 -20 -20 -20 -20 -20 -20 -20 -20 -20 -20 -20 -20 -20 -20 -20 -20 -20 -20 -20 -20 -20 -20 -20 -20 -20 -20 -20 -20 -20 -20 -20 -20
-20 -20 -20 -20 -20 -20 -20 -20 -20 -20 -20 -20 -20 -20 -20 -20 -20 -20 -20 -20 -20 -20 -20 -20 -20 -20 -20 -20 -20 -20 -20 -20 -20 -20 -20 -20 -20 -20 -20 -20 -20 -20 -20 -20 -20 -20 -20 -20 -20
-20 -20 -20 -20 -20 -20 -20 -20 -20 -20 -20 -20 -20 -20 -20 -20 -20 -20 -20 -20 -19 -20 -20 -20 -20 -20 -20 -20 -20 -20 -20 -20 -20 -20 -20 -20 -20 -20 -20 -20 -20 -20 -20 -20 -20 -20 -20 -20 -20
-20 -20 -20 -20 -20 -20 -20 -20 -20 -20 -20 -20 -20 -20 -20 -20 -20 -20 -20 -20 -20 -20 -20 -20 -20 -20 -20 -20 -20 -20 -20 -20 -20 -20 -20 -20 -20 -20 -20 -20 -20 -20 -20 -20 -20 -20 -20 -20 -20
-20 -20 -20 -20 -20 -20 -20 -20 -20 -20 -20 -20 -20 -20 -20 -20 -20 -20 -20 -20 -20 -10 -20 -20 -20 -20 -20 -20 -20 -20 -20 -20 -20 -20 -20 -20 -20 -20 -20 -20 -20 -20 -20 -20 -20 -20 -20 -20 -20
-20 -20 -20 -20 -20 -20 -20 -20 -20 -20 -20 -20 -20 -20 -20 -20 -20 -20 -20 -20 -20 -20 -20 -20 -20 -20 -20 -20 -20 -20 -20 -20 -20 -20 -20 -20 -20 -20 -20 -20 -20 -20 -20 -20 -20 -4 -20 -20 -20
-20 -20 -20 -20 -20 -20 -20 -20 -20 -20 -20 -20 -20 -20 -20 -20 -20 -20 -20 -20 -20 -20 -20 -20 -20 -20 -20 -20 -20 -20 -20 -20 -20 -20 -20 -20 -20 -20 -20 -20 -20 -20 -20 -20 -19 -20 -20 -20 -20
-20 -20 -20 -20 -20 -20 -20 -20 -20 -20 -20 -20 -20 -20 -20 -20 -20 -20 -20 -20 -20 -20 -20 -20 -20 -20 -20 -20 -20 -20 -20 -20 -20 -20 -20 -20 -20 -20 -20 -20 -20 -20 -15 -18 -10 -20 -20 -20 -20
-20 -20 -20 -20 -20 -20 -20 -20 -20 -20 -20 -20 -20 -20 -20 -20 -20 -20 -20 -20 -20 -20 -20 -20 -20 -16 -20 -20 -20 -20 -20 -20 -20 -20 -20 -20 -20 -20 -20 -20 -20 -3 -20 -20 -20 -20 -20 -20 -20
-20 -20 -20 -20 -20 -20 -20 -20 -20 -20 -20 -20 -20 -20 -20 -20 -20 -20 -20 -20 -20 -20 -20 -20 1 13 -20 -18 -20 -20 -20 -20 -20 -20 -20 -20 -20 -20 -20 -20 -18 -20 -20 -20 -20 -20 -20 -20 -20
-20 -20 -20 -20 -20 -20 -20 -20 -20 -20 -20 -20 -20 -20 -20 -20 -20 -20 -20 -20 -20 -20 -20 8 -11 -20 0 -19 -20 -20 -20 -20 -20 -20 -20 -20 -20 -20 -20 -20 -20 -20 -20 -20 -20 -20 -20 -20 -20
Wind_Speed
4 5 3 2 3 1 1 4 2 7 6 6 7 10 14 13 5 4 6 7 16 13 13 15 13 14 15 14 14 14 14 13 12 11 11 11 10 9 9 9 8 9 11 12 12 12 12 12 13
4 3 2 2 3 3 1 2 9 12 15 9 10 8 10 6 2 3 7 7 17 15 14 14 14 15 14 14 13 13 13 13 12 11 10 10 9 9 10 9 8 10 11 10 11 11 11 12 11
4 1 2 2 2 4 1 6 18 19 13 9 6 2 6 5 2 4 4 13 17 15 14 13 13 13 13 13 11 11 11 10 10 10 10 9 9 9 9 8 7 9 9 10 10 10 10 10 10
2 2 3 3 4 4 4 14 17 14 7 3 11 4 3 5 12 11 13 14 14 13 14 12 10 13 13 12 11 11 9 9 8 8 9 8 8 9 8 7 7 8 9 9 10 9 8 8 8
3 1 2 2 3 1 3 15 10 6 7 9 3 9 8 3 7 17 14 14 13 11 11 12 9 11 12 11 10 9 8 8 7 7 7 7 7 7 6 6 6 6 7 8 8 8 7 7 7
2 0 2 3 1 2 3 11 12 9 10 3 4 6 4 7 14 15 14 11 13 13 11 11 11 9 10 10 9 8 8 8 7 7 6 7 6 6 6 6 5 5 6 5 6 5 5 5 5
2 2 3 3 4 4 4 10 10 9 8 5 8 4 3 7 13 14 12 11 11 12 11 10 11 10 8 7 8 7 7 7 6 6 6 7 5 5 4 5 4 5 5 6 5 5 6 7 9
4 2 4 3 8 7 4 7 11 11 3 5 4 6 6 11 12 11 13 12 11 11 10 9 8 8 7 6 5 5 5 6 6 5 5 6 4 3 4 2 3 5 6 7 8 8 9 9 10
3 1 4 6 8 7 7 4 5 2 9 3 4 5 8 19 16 13 12 9 7 5 8 6 6 6 5 5 4 4 4 4 4 4 4 3 2 2 2 3 4 5 6 6 7 9 10 10 8
3 2 6 3 8 13 14 10 7 6 6 3 7 8 19 18 15 14 11 11 11 10 6 4 5 5 4 2 2 1 1 0 1 2 2 0 1 2 3 4 6 6 6 6 8 9 10 7 5
4 3 4 5 7 4 12 5 3 14 5 4 11 17 17 15 13 14 13 12 11 9 7 5 5 4 4 3 2 2 2 1 1 2 2 2 2 3 2 1 1 3 5 4 5 6 4 6 5
3 4 2 5 4 7 7 9 5 3 1 2 16 22 18 17 16 16 14 12 10 9 7 6 5 5 4 3 3 3 4 5 4 4 5 3 2 1 1 1 3 3 3 4 5 4 5 5 5
4 2 3 4 6 9 6 5 6 3 4 13 16 17 18 15 13 9 7 8 9 10 7 7 8 5 5 5 4 5 6 5 7 7 7 4 3 1 2 3 3 3 3 5 5 5 5 6 6
4 4 5 5 5 3 8 4 3 6 4 13 17 16 13 13 13 9 9 9 10 9 10 11 10 8 9 8 7 5 4 3 2 1 3 6 5 1 4 3 3 4 4 4 4 5 4 5 5
4 7 6 7 3 4 3 6 6 9 1 11 11 9 10 9 9 8 5 8 9 9 13 13 12 9 9 8 6 5 5 6 5 4 4 5 0 1 4 3 4 4 4 5 4 4 3 3 4
4 5 4 2 1 4 1 3 7 13 6 9 10 9 9 8 7 7 4 11 13 14 15 14 10 10 10 7 6 5 3 5 4 3 2 4 3 2 4 5 5 4 3 3 4 3 3 3 5
7 4 3 4 9 2 7 1 10 8 10 9 9 8 8 9 10 8 7 11 15 18 18 13 8 10 9 8 5 2 7 5 2 3 2 5 6 5 5 4 4 3 4 4 4 4 4 4 6
4 5 2 5 4 11 11 5 9 9 9 9 9 9 9 8 8 8 11 11 14 16 15 12 6 6 7 6 5 3 4 3 3 4 5 7 6 6 5 5 4 3 3 3 3 4 4 4 5
5 4 6 3 3 8 8 8 9 7 9 8 7 9 10 10 6 10 12 14 16 15 13 11 10 10 9 7 4 1 2 3 4 5 7 7 7 8 6 4 4 3 3 2 2 2 5 4 6
5 7 5 5 4 7 8 11 8 8 5 3 9 10 11 13 11 11 13 15 16 16 13 11 11 12 9 4 1 2 2 3 4 5 6 7 6 6 5 3 2 1 1 0 2 4 3 3 4
4 7 4 5 7 8 7 5 5 6 7 7 8 8 10 14 15 12 13 11 10 10 9 10 10 9 3 3 3 4 4 3 2 3 3 3 3 2 2 3 4 4 3 1 2 3 5 5 3
4 4 11 11 2 4 3 3 1 2 5 6 7 8 10 13 12 11 10 10 11 8 6 8 8 6 6 5 5 6 4 3 3 2 1 4 6 8 6 5 4 3 2 4 3 3 4 4 5
4 6 7 3 4 3 2 2 3 5 7 9 9 7 9 10 13 14 15 14 11 9 7 8 10 9 8 9 9 7 8 4 2 2 5 6 6 7 7 5 4 1 3 4 4 3 3 3 4
10 6 6 4 2 0 1 3 6 10 14 13 9 8 10 11 10 10 8 9 10 9 8 10 13 12 12 12 12 12 10 8 7 7 7 6 8 8 7 5 4 5 5 3 3 4 4 3 2
5 4 2 1 1 3 1 3 5 15 12 16 16 14 13 10 8 7 9 7 7 11 11 12 15 14 11 11 10 8 7 7 7 7 7 10 9 9 9 6 6 4 4 3 2 3 3 3 2
2 4 5 6 4 2 2 6 3 3 11 15 15 13 11 10 8 6 6 8 10 13 14 14 14 13 10 10 9 8 8 4 4 5 7 7 8 9 10 5 5 5 2 2 2 4 4 3 3
3 2 2 7 2 1 2 3 6 1 10 11 13 13 13 11 8 8 9 9 11 12 12 13 14 12 10 8 6 5 4 4 4 7 7 7 9 8 3 6 5 4 4 2 5 4 5 4 4
1 6 3 2 4 4 2 5 6 6 14 12 13 14 12 9 10 10 9 9 9 11 10 10 10 10 8 6 4 3 4 5 7 8 10 11 10 7 4 5 5 2 4 4 5 4 5 5 5
3 3 6 5 1 3 2 5 4 8 13 16 16 13 13 13 13 11 9 9 10 11 10 10 8 7 6 5 4 5 6 7 7 8 9 10 10 6 4 4 3 4 4 6 5 5 5 6 6
1 3 4 4 4 2 0 6 1 6 8 8 8 9 11 13 13 11 11 11 11 10 9 8 6 5 4 3 3 4 6 6 7 8 9 9 8 6 5 6 6 6 7 6 4 6 6 6 6
Wind_Direction
162 169 194 95 216 309 153 182 143 122 77 57 75 78 82 41 343 15 145 149 128 143 147 154 140 133 128 129 122 115 114 115 118 111 100 93 90 87 86 80 73 76 71 65 61 55 50 45 40
139 151 71 99 224 168 230 339 105 108 125 96 66 76 60 71 34 52 161 156 139 143 152 155 146 135 134 129 125 124 128 132 127 112 108 107 103 96 88 86 77 75 71 67 61 56 50 45 41
163 94 205 155 147 165 148 151 117 120 142 156 103 324 135 114 347 211 224 148 145 148 154 150 146 139 133 133 133 132 132 133 124 124 122 117 112 102 99 96 88 81 73 63 59 53 49 45 40
151 135 90 245 200 223 149 148 127 121 64 46 156 142 84 139 165 184 144 148 152 147 152 141 139 137 139 138 134 129 135 128 123 117 123 120 102 91 90 83 78 71 65 59 58 55 50 43 38
54 80 170 252 230 219 202 159 184 117 76 255 192 146 119 82 136 133 146 158 136 135 138 146 129 140 141 133 134 133 128 116 115 117 118 105 92 88 89 83 74 74 72 66 61 50 47 38 29
111 43 157 232 282 162 158 156 110 111 200 161 85 101 103 137 145 146 151 151 133 133 140 145 142 134 128 130 128 127 134 133 128 121 117 96 77 70 62 57 55 44 53 54 65 52 42 34 22
128 133 214 174 122 108 117 126 92 198 176 184 122 79 91 140 150 149 137 143 137 133 144 147 151 144 119 127 136 151 148 134 129 122 112 98 90 73 62 46 39 24 20 13 22 16 8 5 359
115 164 173 224 140 76 111 105 129 225 207 138 111 154 158 167 162 138 135 142 136 139 144 151 147 147 142 143 116 142 146 135 137 132 120 109 102 85 71 23 4 6 7 352 349 347 346 349 352
125 177 187 188 123 107 83 40 146 138 137 67 74 156 148 148 138 136 140 136 132 130 137 132 151 160 139 144 138 146 142 144 173 159 140 126 96 69 27 342 324 333 331 329 333 329 322 330 322
168 194 217 217 126 195 161 189 141 126 145 107 100 107 129 141 148 153 160 161 163 157 141 137 155 145 101 99 117 159 132 204 230 189 161 177 345 4 331 314 320 303 311 312 331 331 319 312 331
172 213 210 247 157 171 142 97 157 144 191 189 151 140 142 145 158 166 173 176 164 161 176 176 160 113 76 34 19 17 9 319 300 294 297 328 335 328 320 285 292 345 4 359 357 1 360 356 349
207 230 219 354 96 107 123 130 98 103 51 191 152 151 149 162 171 176 182 170 166 168 181 147 101 95 92 55 46 30 10 358 335 339 338 327 326 327 347 54 58 56 21 5 18 15 13 26 30
177 229 68 33 108 97 120 94 130 60 55 120 137 159 162 168 173 179 168 165 169 168 144 106 82 85 90 71 62 46 38 9 341 332 330 319 295 320 54 58 66 51 36 28 30 35 35 37 38
131 117 107 70 95 85 117 86 105 13 136 131 156 169 164 169 168 174 165 158 171 149 115 102 95 94 91 83 81 88 66 15 290 304 12 353 317 328 91 77 57 48 41 51 57 54 46 37 17
117 81 65 29 39 75 46 46 36 339 223 131 138 145 150 157 166 192 181 153 151 136 125 111 108 103 76 62 67 43 32 56 44 49 48 112 223 144 94 88 68 58 67 92 90 76 59 36 15
78 61 103 22 64 31 105 161 6 351 132 108 126 134 128 92 82 61 62 146 141 136 132 128 121 92 75 63 30 66 75 70 95 122 181 151 153 70 81 78 85 102 94 85 74 39 28 19 359
23 120 123 95 17 99 37 46 345 348 113 94 96 108 104 94 73 62 70 138 146 142 137 117 98 79 72 52 104 100 85 88 83 58 66 54 63 73 90 92 98 88 70 60 43 41 5 9 351
151 137 131 114 20 55 76 54 5 26 104 109 113 111 104 90 71 83 96 113 124 128 122 122 127 110 98 132 138 138 106 93 70 81 72 68 66 64 73 71 61 51 66 62 53 28 29 17 344
120 104 103 62 149 78 75 67 31 45 77 104 119 126 115 100 102 105 117 128 128 132 128 130 138 136 142 147 179 176 148 112 90 70 56 52 47 50 56 61 49 44 52 75 65 15 357 359 354
93 125 99 90 113 93 99 62 54 44 55 110 134 130 124 120 119 124 129 141 147 154 154 151 155 156 153 171 133 62 122 87 79 61 53 46 49 51 60 50 28 316 288 263 59 16 351 3 23
67 102 165 131 107 95 117 71 43 52 85 102 98 106 114 126 129 136 148 151 143 150 148 153 154 162 144 102 109 93 96 107 90 52 51 54 110 159 227 271 288 272 262 173 99 46 5 352 31
87 108 127 121 85 136 319 162 134 115 118 124 124 125 132 137 134 133 133 130 135 136 126 127 116 99 63 33 60 61 49 49 37 30 317 339 342 333 315 298 291 266 166 119 104 65 35 6 350
117 132 116 97 101 154 70 123 140 171 196 184 175 157 153 153 143 144 154 159 144 129 104 88 82 77 75 76 72 68 62 53 18 308 326 328 325 310 291 278 297 174 142 135 112 94 45 40 9
143 92 54 56 69 270 156 228 187 193 198 186 184 183 172 170 157 158 136 129 119 103 106 105 97 83 75 71 63 59 47 25 5 349 331 321 316 316 317 276 219 177 158 149 130 132 134 121 102
75 95 89 179 205 230 338 206 262 205 188 182 184 185 182 183 167 172 157 141 127 114 114 105 100 93 85 78 68 62 54 36 10 347 327 317 312 309 309 259 190 157 124 150 169 181 175 213 264
106 164 163 196 197 196 131 229 232 212 199 183 187 179 172 182 178 180 142 126 119 117 116 113 104 99 94 93 82 67 52 37 7 342 324 311 308 303 303 228 151 131 132 102 160 257 272 244 256
157 169 111 106 23 217 228 270 264 163 187 179 164 167 180 179 174 153 129 121 124 125 125 119 115 111 104 98 94 80 58 30 359 344 337 330 321 313 283 161 154 123 121 227 279 302 298 293 291
123 132 121 45 155 249 247 270 243 202 195 192 182 185 180 168 156 144 135 132 129 120 116 109 108 110 116 108 100 83 47 13 5 354 346 338 334 322 217 174 153 170 303 292 301 302 290 287 282
143 126 65 101 52 173 291 255 213 229 203 201 201 185 176 169 160 148 138 133 131 131 135 126 119 127 111 95 62 35 21 9 352 345 342 339 329 324 247 219 264 317 272 271 269 264 274 268 278
111 138 136 124 185 64 295 273 150 269 251 220 192 171 172 164 152 147 145 144 143 145 149 122 117 111 90 70 36 23 11 350 340 337 335 335 330 336 337 304 300 285 292 268 270 271 261 268 271